sat.trackr.live / text

‹ back to catalog

STARLINK-37483

NORAD 68856 · 2026-094T

PAYLOAD ACTIVE UNKNOWN

§ Identity

Operator
Country
US
Launch date
2026-04-26
Launch site
AFWTR
Launch vehicle
Mass (kg)
RCS (m²)

Purposes: comms

External: N2YO · Heavens-Above · Gunter

§ Orbital elements

Epoch: 2026-09-19T06:50:08.866176Z

Period
93.91 min
Inclination
97.2867°
Eccentricity
0.0001045
Mean motion
15.33445367 rev/d
Perigee alt
464.8 km
Apogee alt
466.3 km
Semi-major
6,843.7 km
B*
5.5026e-4
RAAN
275.4589°
Arg perigee
99.4541°
Mean anomaly
260.6820°
Rev number
2,247

§ Raw data

STARLINK-374831 68856U 26094T   26262.28482484  .00017731  00000+0  55026-3 0  99912 68856  97.2867 275.4589 0001045  99.4541 260.6820 15.33445367 22476

JSON: /api/v1/satellites/68856 · /tle

For live sub-satellite position, see the globe view (requires WebGL).

§ Visibility from observer

Set your observer location to see the next 7 days of passes ≥ 10°. The values pass through the URL so the page stays shareable.

No JS? Fill the form by hand. The geolocation button needs JavaScript.